This is the latest recevied weather packets stored in our database for station/object SR5NLK-1. If no packets are shown the sender has not sent any weather packets the latest 10 day(s).
| Time | Temp. | Humidity | Pressure | Rain* | Wind** | Luminosity | Snow |
|---|---|---|---|---|---|---|---|
| 1788025733 | 20° C | 72% | 1043.6 hPa | 0 mm | - | - | - |
| 1788025493 | 20° C | 71% | 1078.4 hPa | 0 mm | - | - | - |
| 1788025194 | 20.56° C | 71% | 1027.1 hPa | 0 mm | - | - | - |
| 1788024893 | 20.56° C | 70% | 1075.3 hPa | 0 mm | - | - | - |
| 1788024593 | 20.56° C | 69% | 1075.2 hPa | 0 mm | - | - | - |
| 1788024293 | 21.11° C | 68% | 1055.5 hPa | 0 mm | - | - | - |
| 1788023993 | 21.11° C | 67% | 1014.6 hPa | 0 mm | - | - | - |
| 1788023753 | 21.67° C | 67% | 1062.6 hPa | 0 mm | - | - | - |
| 1788023693 | 21.67° C | 66% | 1072 hPa | 0 mm | - | - | - |
| 1788023394 | 21.67° C | 65% | 1078.4 hPa | 0 mm | - | - | - |
| 1788023094 | 22.22° C | 64% | 1059.5 hPa | 0 mm | - | - | - |
| 1788022794 | 22.78° C | 64% | 1078.4 hPa | 0 mm | - | - | - |
| 1788022494 | 22.78° C | 63% | 1039.7 hPa | 0 mm | - | - | - |
| 1788022194 | 23.33° C | 61% | 1025.6 hPa | 0 mm | - | - | - |
| 1788021894 | 23.89° C | 61% | 1043.5 hPa | 0 mm | - | - | - |
| 1788021773 | 23.89° C | 60% | 1004.1 hPa | 0 mm | - | - | - |
| 1788021594 | 23.89° C | 60% | 1087.8 hPa | 0 mm | - | - | - |
| 1788021294 | 24.44° C | 59% | 1039.7 hPa | 0 mm | - | - | - |
| 1788020994 | 24.44° C | 59% | 1081.5 hPa | 0 mm | - | - | - |
| 1788020694 | 25° C | 58% | 1027.1 hPa | 0 mm | - | - | - |
| 1788020394 | 25° C | 60% | 1081.5 hPa | 0 mm | - | - | - |
| 1788020094 | 25.56° C | 62% | 1083.3 hPa | 0 mm | - | - | - |
| 1788019827 | 25° C | 63% | 1078.4 hPa | 0 mm | - | - | - |
| 1788019793 | 25° C | 63% | 1078.4 hPa | 0 mm | - | - | - |
| 1788019494 | 24.44° C | 63% | 1046 hPa | 0 mm | - | - | - |
* Rain latest hour (hover to see other rain measurements)
** Current wind speed in m/s (hover to see current wind gust speed)